Date,TemperatureHighF,TemperatureAvgF,TemperatureLowF,DewpointHighF,DewpointAvgF,DewpointLowF,HumidityHigh,HumidityAvg,HumidityLow,PressureMaxIn,PressureMinIn,WindSpeedMaxMPH,WindSpeedAvgMPH,GustSpeedMaxMPH,PrecipitationSumIn
2013-3-1,47.7,38.1,27.0,29.1,26.1,22.7,89,63,41,29.91,29.83,14,3,14,0.00
2013-3-2,47.1,38.3,28.5,36.2,30.2,20.7,96,73,56,29.91,29.79,9,2,12,0.06
2013-3-3,44.1,33.2,24.7,21.2,17.3,13.0,80,54,29,30.00,29.88,13,3,15,0.00
2013-3-4,56.9,37.9,20.5,26.2,16.1,11.7,76,46,17,30.13,29.99,14,2,14,0.00
2013-3-5,55.0,45.9,40.8,45.5,36.4,19.5,98,72,37,30.04,29.59,16,2,16,0.46
2013-3-6,45.5,38.6,29.5,42.1,24.6,19.8,98,58,41,30.09,29.61,28,10,28,0.01
2013-3-7,56.9,39.2,25.6,29.6,25.1,22.0,90,61,31,30.24,30.09,13,2,13,0.00
2013-3-8,59.5,42.4,26.6,25.0,21.3,12.7,80,47,17,30.28,30.16,15,4,15,0.00
2013-3-9,63.7,48.2,31.9,32.0,26.5,22.5,71,44,25,30.32,30.19,8,1,11,0.00
2013-3-10,66.8,52.4,39.6,37.3,33.7,30.0,78,51,27,30.25,30.11,9,1,9,0.00
2013-3-11,67.4,54.6,43.3,55.0,43.5,31.7,98,68,50,30.14,29.78,11,2,11,0.45
2013-3-12,66.0,57.2,43.6,56.9,42.7,17.4,99,66,17,29.95,29.69,20,5,20,0.27
2013-3-13,56.5,45.8,37.0,32.1,23.5,16.3,70,43,24,30.13,29.94,26,6,26,0.00
2013-3-14,51.9,39.3,25.7,21.5,15.9,9.4,72,41,19,30.27,30.13,17,4,17,0.00
2013-3-15,69.8,50.2,30.1,40.9,27.4,10.9,63,42,28,30.16,29.86,14,3,14,0.00
2013-3-16,77.4,65.9,55.0,46.7,42.3,39.3,60,44,30,29.87,29.68,26,6,26,0.00
2013-3-17,77.0,62.9,46.2,49.6,43.2,38.6,75,50,32,30.02,29.79,13,3,13,0.00
2013-3-18,46.2,41.3,39.5,41.4,39.4,37.7,98,93,75,30.07,29.83,15,4,15,0.39
2013-3-19,64.8,51.0,40.5,43.1,29.7,13.3,100,55,19,30.01,29.82,21,8,21,0.01
2013-3-20,58.0,48.5,42.8,23.7,14.2,10.0,39,25,17,30.07,29.74,21,4,21,0.00
2013-3-21,45.5,37.6,30.0,28.7,12.3,5.1,61,36,23,29.93,29.77,21,9,21,0.00
2013-3-22,51.7,38.3,25.4,26.6,16.7,10.3,65,43,25,30.06,29.93,12,2,14,0.00
2013-3-23,52.6,44.1,39.5,42.9,36.9,24.6,96,77,47,30.00,29.85,7,1,7,0.04
2013-3-24,43.9,41.7,38.9,42.6,40.0,37.3,100,94,85,29.89,29.51,16,4,16,0.90
2013-3-25,45.2,40.1,34.7,38.8,26.8,17.9,98,63,36,29.89,29.52,20,4,20,0.01
2013-3-26,46.4,37.6,26.4,24.0,21.8,19.3,79,54,37,30.16,29.87,22,4,22,0.00
2013-3-27,54.4,39.7,27.2,25.0,21.0,13.9,77,51,21,30.24,30.14,17,4,17,0.00
2013-3-28,58.3,42.8,27.0,27.1,20.4,13.0,77,45,17,30.28,30.14,20,4,20,0.00
2013-3-29,62.9,46.8,31.2,44.6,26.7,20.0,90,50,22,30.31,30.16,13,2,13,0.01
2013-3-30,66.3,53.2,44.1,46.8,42.1,38.3,97,70,37,30.19,29.99,12,2,12,0.05
2013-3-31,70.8,57.5,48.9,56.7,51.0,41.5,99,81,51,30.00,29.77,21,3,21,0.36